Weather Roundup
Issued by NWS Springfield, MO

Home | Current Version | Previous Version | Text Only | Print | Product List | Glossary On
Versions: 1 2 3 4 5 6 7 8 9 10 11 12 13 14 15 16 17 18 19 20 21 22 23 24 25 26 27 28 29 30 31 32 33 34 35 36 37 38 39 40 41 42 43 44 45 46 47 48 49 50
000
NZUS99 KSGF 292007
HRRSGF

HOURLY WEATHER
NATIONAL WEATHER SERVICE SPRINGFIELD MO
200 PM CST THU JAN 29 2015

......SGF CWA......

CITY           SKY/WX    TMP DP  RH WIND       PRES   REMARKS
SPRINGFIELD    CLOUDY    40  29  64 NW21      30.30S WCI  30
JOPLIN         CLOUDY    45  29  53 NW21G29   30.37S
WEST PLAINS    CLOUDY    40  30  67 NW15G25   30.24F WCI  32
ROLLA          CLOUDY    38  28  67 NW16G23   30.22R WCI  29
OSAGE BEACH    CLOUDY    41  27  56 NW9G17    30.28S
BRANSON        CLOUDY    39  32  75 NW14G24   30.30R WCI  31

......SURROUNDING SGF CWA......

CITY           SKY/WX    TMP DP  RH WIND       PRES   REMARKS
CHANUTE        CLOUDY    48  29  47 NW20G30   30.39S
PARSONS        CLOUDY    48  30  49 NW15      30.40S
COFFEYVILLE    CLOUDY    48  29  47 NW21      30.40S
EMPORIA        CLOUDY    45  27  49 N18G30    30.40S
GROVE OK       CLOUDY    46  32  57 N17G23    30.37F
ROGERS AR      CLOUDY    40  29  64 N16G23    30.33S WCI  31
SILOAM SPRINGS CLOUDY    45  27  49 N20G26    30.35S
HARRISON AR    CLOUDY    40  31  70 NW15G25   30.29R WCI  32
NEAR YELLVILLE CLOUDY    43  30  61 N15G21    30.28R

......KANSAS AND MISSOURI......

CITY           SKY/WX    TMP DP  RH WIND       PRES   REMARKS
KANSAS CTY INT CLOUDY    41  27  57 N22       30.36R
DOWNTOWN KC    CLOUDY    43  27  53 N14G23    30.37R
COLUMBIA       CLOUDY    40  30  67 NW17G25   30.25R WCI  31
SEDALIA        CLOUDY    42  29  59 NW23      30.31R
ST JOSEPH      CLOUDY    41  26  55 N26G32    30.38S
ST LOUIS       CLOUDY    42  31  64 W16       30.18R
SPIRIT OF STL  CLOUDY    42  30  62 W16G25    30.19S
KIRKSVILLE     CLOUDY    37  28  70 NW14G25   30.26R WCI  28
WICHITA        PTSUNNY   50  26  39 N18G28    30.43F
TOPEKA         CLOUDY    43  27  53 N21G28    30.41S
OLATHE         CLOUDY    41  27  57 N16G25    30.36R

......TENNESSEE......

CITY           SKY/WX    TMP DP  RH WIND       PRES   REMARKS
MEMPHIS        CLOUDY    63  41  44 NW16G22   30.12R
NASHVILLE      PTSUNNY   65  41  41 W10G21    30.00F

......ARKANSAS.......

CITY           SKY/WX    TMP DP  RH WIND       PRES   REMARKS
FAYETTEVILLE   CLOUDY    41  31  67 N15       30.33R
FT SMITH       PTSUNNY   49  32  52 N17       30.33R
LITTLE ROCK    PTSUNNY   65  36  34 NW17G23   30.17R

......OKLAHOMA.......

CITY           SKY/WX    TMP DP  RH WIND       PRES   REMARKS
TULSA          MOSUNNY   51  31  46 N23G32    30.38S
PONCA CITY     MOSUNNY   51  28  41 N22G30    30.43F
MCALESTER      PTSUNNY   53  33  46 N16       30.35S
OKLAHOMA CITY  PTSUNNY   52  29  41 N21G29    30.40S

......IOWA............

CITY           SKY/WX    TMP DP  RH WIND       PRES   REMARKS
DES MOINES     CLOUDY    37  25  61 N23G32    30.30R WCI  26
QUAD CITIES    CLOUDY    35  29  78 NW23G33   30.11R WCI  23

......ILLINOIS........

CITY           SKY/WX    TMP DP  RH WIND       PRES   REMARKS
QUINCY         CLOUDY    37  29  72 NW23G33   30.19R WCI  26
CHICAGO        CLOUDY    33  26  75 NW15      29.98R WCI  23




USA.gov is the U.S. government's official web portal to all federal, state and local government web resources and services.